Weather History for Alma, GA

Change the Weather History Date:

Monday, October 8, 2012

  Actual Average Record
Temperature  
Mean Temperature 66 °F 71 °F  
Max Temperature 71 °F 81 °F 91 °F (1990)
Min Temperature 61 °F 60 °F 41 °F (1991)
Degree Days  
Heating Degree Days 0 1  
Month to date heating degree days 0 3  
Since 1 July heating degree days 0 5  
Cooling Degree Days 1 7  
Month to date cooling degree days 90 60  
Year to date cooling degree days 2577 2330  
Growing Degree Days 16 (Base 50)    
Moisture  
Dew Point 62 °F    
Average Humidity 83    
Maximum Humidity 90    
Minimum Humidity 76    
Precipitation  
Precipitation T in 0.10 in 2.56 in (1952)
Month to date precipitation 0.26 0.84  
Year to date precipitation 33.24 38.69  
Snow  
Snow 0.00 in 0.00 in 0.00 in ()
Month to date snowfall 0.0 0.0  
Since 1 July snowfall 0.0 0.0  
Since 1 September snowfall 0.0 0.0  
Snow Depth 0.00 in    
Sea Level Pressure  
Sea Level Pressure 30.03 in    
Wind  
Wind Speed 4 mph (North)    
Max Wind Speed 10 mph    
Max Gust Speed 14 mph    
Visibility 8 miles    
Events      
T = Trace of Precipitation, MM = Missing Value Source: NWS Daily Summary

Daily Weather History Graph

Daily Weather History Graph

Search for Another Location

Airport:

Trip Planner

Search our weather history database for the weather conditions in past years. The results will help you decide how hot, cold, wet, or windy it might be!

Date:

Astronomy

Oct. 08, 2012 Rise Set
Actual Time 7:28 AM EDT 7:05 PM EDT
Civil Twilight 7:04 AM EDT 7:30 PM EDT
Nautical Twilight 6:36 AM EDT 7:58 PM EDT
Astronomical Twilight 6:07 AM EDT 8:26 PM EDT
Moon 12:31 AM EDT (10/8) 2:31 PM EDT (10/8)
Length of Visible Light 12h 25m
Length of Day
11h 37m
Waning Gibbous, 46% of the Moon is Illuminated
Oct 8
Waning Gibbous
Oct 15
New
Oct 21
First Quarter
Oct 29
Full
Nov 6
Last Quarter

Hourly Weather History & Observations

Time (EDT) Temp. Dew Point Humidity Pressure Visibility Wind Dir Wind Speed Gust Speed Precip Events Conditions
12:53 AM 71.1 °F 64.0 °F 78% 30.01 in 9.0 mi North 5.8 mph - N/A   Clear
1:53 AM 70.0 °F 63.0 °F 78% 30.01 in 10.0 mi NNW 5.8 mph - N/A   Scattered Clouds
2:25 AM 69.8 °F 62.6 °F 78% 30.02 in 10.0 mi North 4.6 mph - N/A   Overcast
2:53 AM 69.1 °F 63.0 °F 81% 29.99 in 10.0 mi North 4.6 mph - N/A   Scattered Clouds
3:53 AM 68.0 °F 62.1 °F 81% 29.98 in 10.0 mi Calm Calm - N/A   Partly Cloudy
4:53 AM 66.9 °F 62.1 °F 84% 29.98 in 10.0 mi North 3.5 mph - N/A   Scattered Clouds
5:03 AM 66.2 °F 62.6 °F 88% 29.99 in 10.0 mi North 3.5 mph - N/A   Mostly Cloudy
5:14 AM 66.2 °F 62.6 °F 88% 29.99 in 10.0 mi North 4.6 mph - N/A   Scattered Clouds
5:53 AM 66.9 °F 62.1 °F 84% 30.00 in 9.0 mi Calm Calm - N/A   Overcast
6:32 AM 66.2 °F 62.6 °F 88% 30.01 in 10.0 mi Calm Calm - N/A   Overcast
6:53 AM 66.0 °F 62.1 °F 87% 30.01 in 10.0 mi North 5.8 mph - N/A   Overcast
7:10 AM 66.2 °F 62.6 °F 88% 30.01 in 9.0 mi North 3.5 mph - N/A   Mostly Cloudy
7:53 AM 66.0 °F 62.1 °F 87% 30.03 in 7.0 mi Calm Calm - N/A   Partly Cloudy
8:04 AM 66.2 °F 62.6 °F 88% 30.04 in 8.0 mi NNW 3.5 mph - N/A   Mostly Cloudy
8:12 AM 66.2 °F 62.6 °F 88% 30.03 in 8.0 mi Calm Calm - N/A   Mostly Cloudy
8:53 AM 66.9 °F 63.0 °F 87% 30.04 in 7.0 mi Calm Calm - N/A   Overcast
9:53 AM 68.0 °F 64.0 °F 87% 30.06 in 5.0 mi NE 5.8 mph - N/A   Overcast
10:53 AM 69.1 °F 64.9 °F 87% 30.06 in 4.0 mi NE 4.6 mph - N/A   Overcast
11:53 AM 70.0 °F 64.9 °F 84% 30.06 in 5.0 mi Variable 3.5 mph - N/A   Haze
12:53 PM 70.0 °F 64.0 °F 81% 30.06 in 5.0 mi NNW 6.9 mph - N/A   Haze
1:45 PM 71.6 °F 64.4 °F 78% 30.04 in 5.0 mi North 5.8 mph - N/A   Haze
1:53 PM 70.0 °F 64.0 °F 81% 30.04 in 5.0 mi NNW 4.6 mph - N/A   Haze
2:48 PM 69.8 °F 62.6 °F 78% 30.02 in 4.0 mi NNW 8.1 mph - N/A   Haze
2:53 PM 69.1 °F 63.0 °F 81% 30.02 in 4.0 mi NNW 10.4 mph - N/A   Haze
3:53 PM 68.0 °F 63.0 °F 84% 30.01 in 5.0 mi Variable 4.6 mph - 0.00 in   Haze
4:24 PM 69.8 °F 62.6 °F 78% 30.01 in 6.0 mi Variable 4.6 mph - N/A   Haze
4:53 PM 69.1 °F 62.1 °F 78% 30.01 in 8.0 mi NNW 6.9 mph - N/A   Overcast
5:53 PM 68.0 °F 61.0 °F 78% 30.02 in 9.0 mi Variable 4.6 mph - N/A   Overcast
6:53 PM 66.0 °F 60.1 °F 81% 30.04 in 10.0 mi Variable 5.8 mph - N/A   Overcast
7:50 PM 64.4 °F 60.8 °F 88% 30.05 in 10.0 mi North 5.8 mph - N/A   Overcast
7:53 PM 64.0 °F 60.1 °F 87% 30.05 in 10.0 mi Calm Calm - N/A   Overcast
8:53 PM 63.0 °F 59.0 °F 87% 30.06 in 10.0 mi Variable 4.6 mph - N/A   Overcast
9:53 PM 63.0 °F 57.9 °F 84% 30.08 in 9.0 mi Variable 3.5 mph - N/A   Overcast
10:43 PM 62.6 °F 57.2 °F 82% 30.10 in 10.0 mi Variable 4.6 mph - N/A   Overcast
10:53 PM 62.1 °F 57.0 °F 84% 30.10 in 10.0 mi North 3.5 mph - N/A   Overcast
11:53 PM 61.0 °F 57.0 °F 87% 30.10 in 10.0 mi North 3.5 mph - N/A   Overcast